Wind_Speed
28 28 28 29 30 32 33 32 30 28 27 26 25 25 25 24 22 20 18 17 16 15 14 12 10 9 11 13 11 11 12 12 14 14 13 12 12 12 15 16 16 16 16 15 15 15 15 15 16 16 17 19 19 20 20 19 20 23 22 22 27 32
25 26 27 28 29 29 28 27 25 24 23 23 23 23 22 19 16 14 13 14 14 13 13 12 10 11 13 14 12 12 14 16 17 18 17 17 17 18 20 20 20 20 19 19 17 16 16 16 18 21 24 24 23 24 22 20 22 23 23 26 30 34
24 25 26 26 26 25 23 22 21 21 21 21 21 20 18 14 12 11 12 12 12 13 14 12 11 14 16 16 15 16 19 21 22 22 21 20 20 21 22 22 22 22 22 21 19 19 20 21 25 27 27 25 24 25 21 18 21 21 24 29 32 36
23 24 24 23 21 20 19 18 18 19 19 20 19 17 14 12 11 12 13 13 14 15 16 14 14 16 18 19 19 19 22 23 24 24 22 20 21 22 22 23 23 23 22 21 22 22 24 25 28 27 24 24 24 25 22 18 19 20 26 31 32 37
20 20 19 17 16 15 15 16 16 17 18 17 15 13 12 12 13 14 15 16 17 17 17 17 16 18 19 19 20 21 23 25 24 23 22 20 21 22 23 23 22 21 21 22 23 23 24 25 26 24 22 24 25 24 22 18 19 22 28 30 31 35
16 15 13 13 13 13 14 14 15 16 16 14 12 11 13 14 15 17 18 18 18 18 18 18 18 20 20 19 20 23 24 25 25 24 23 22 22 23 22 22 22 21 22 23 24 23 24 24 23 21 22 24 24 23 23 22 23 25 26 28 30 34
11 10 10 11 12 13 13 14 15 15 14 13 12 12 14 17 18 20 21 20 19 19 18 18 19 21 22 20 22 25 25 25 25 24 23 23 23 23 22 23 23 23 22 23 24 24 23 22 21 20 22 24 23 25 27 26 26 25 23 26 29 32
8 10 11 11 12 13 14 15 15 15 14 13 14 15 17 19 20 22 22 22 20 20 19 18 19 21 22 22 24 25 25 25 24 23 22 22 22 22 24 25 25 23 22 23 23 22 21 21 21 22 23 22 24 29 29 27 27 26 22 25 29 31
10 12 12 13 14 15 16 16 16 16 15 15 17 18 19 20 21 22 23 23 22 20 19 18 19 20 22 22 24 25 25 24 23 22 21 20 21 22 24 25 24 23 23 23 22 20 20 22 23 23 23 21 26 32 30 28 29 27 23 24 28 30
13 14 14 15 17 18 18 18 17 17 17 18 19 20 22 22 22 23 23 23 22 20 18 18 18 19 20 21 23 25 24 22 21 21 20 19 20 22 23 23 23 22 22 22 21 21 21 22 23 23 22 21 27 34 32 30 30 27 24 23 28 30
15 16 17 19 20 21 21 20 20 20 20 21 22 22 22 22 22 23 23 22 21 20 18 17 18 18 18 19 21 23 23 22 20 19 19 18 19 20 21 21 21 21 21 21 21 21 22 22 23 22 20 20 27 34 33 32 30 27 24 23 28 32
17 18 20 21 22 22 22 22 23 23 23 24 24 24 23 22 21 21 21 21 20 19 18 17 17 17 17 17 19 20 21 21 20 19 18 18 18 18 19 19 19 19 20 21 21 22 22 22 23 22 20 20 25 32 33 31 29 27 25 23 26 32
19 20 22 23 23 23 24 25 26 26 26 26 27 26 24 23 21 20 19 18 18 18 18 17 16 16 16 16 16 17 18 19 19 18 18 18 18 17 17 17 17 18 19 20 20 21 21 21 23 22 21 19 23 30 32 30 27 27 27 24 24 31
20 22 23 23 23 24 25 27 28 29 29 29 29 28 27 25 23 21 19 17 17 17 17 16 16 15 15 15 15 15 15 16 16 17 16 16 17 17 16 15 15 15 17 18 19 20 20 20 21 22 21 19 20 26 32 29 26 27 27 24 23 28
22 23 24 24 25 26 27 28 29 29 30 31 31 31 30 29 27 25 22 19 17 17 16 16 15 14 14 13 13 14 14 14 14 15 15 14 15 15 15 14 13 13 14 15 17 18 20 19 20 21 21 20 19 22 28 30 27 25 26 25 23 23
23 24 25 25 26 27 29 29 30 30 31 31 32 32 32 32 31 29 28 25 22 19 16 15 15 14 13 12 12 12 13 13 13 13 13 13 12 13 14 14 13 12 13 14 15 17 19 19 19 20 20 20 20 20 23 28 29 26 25 25 24 22
24 25 26 26 28 29 30 31 32 32 32 32 33 33 33 33 33 33 33 32 29 25 21 18 15 14 13 12 11 11 11 12 12 12 12 11 11 11 12 12 12 12 12 12 14 15 17 18 18 19 20 21 21 21 21 24 28 29 27 25 26 23
26 27 27 28 29 30 31 32 33 34 34 35 35 35 35 35 34 35 35 35 34 32 29 26 22 19 15 13 11 10 10 10 11 11 11 11 11 10 11 11 11 12 12 12 13 14 15 16 16 17 20 22 22 23 22 22 24 27 28 27 26 25
27 28 28 29 29 30 31 32 34 35 36 37 37 38 38 38 38 38 37 37 36 35 34 33 31 29 26 22 18 15 12 11 10 9 9 10 10 10 10 10 11 11 11 11 12 13 14 15 15 15 17 21 23 25 24 23 22 23 26 27 28 28
27 28 29 30 30 31 32 33 35 36 37 38 39 40 41 42 42 42 42 41 40 39 38 36 35 34 33 31 29 26 23 20 17 14 11 9 8 7 7 8 9 10 10 11 11 11 12 13 14 14 15 17 21 25 26 25 24 24 24 25 26 28
27 28 29 30 30 32 33 35 36 38 39 40 41 42 43 44 44 45 45 45 45 44 43 42 40 38 37 35 34 33 32 30 28 25 22 19 15 12 8 6 6 6 7 8 9 10 10 11 12 13 14 15 18 22 26 26 26 25 25 26 26 26
27 28 29 29 30 31 33 35 36 38 39 40 41 42 43 44 44 45 46 46 46 46 46 46 45 43 42 40 39 37 36 34 33 32 30 28 26 23 20 15 11 7 5 4 5 6 7 9 10 11 13 14 16 19 22 25 27 27 26 26 27 28
26 27 28 28 29 30 32 34 35 36 37 39 40 41 41 42 42 43 43 44 44 44 45 45 44 44 44 43 42 41 39 38 37 35 34 32 31 29 27 25 22 19 14 10 6 3 4 6 7 9 11 12 14 15 18 21 24 27 28 28 27 28
25 25 26 27 28 29 30 32 33 34 35 36 37 38 39 39 39 40 40 40 40 40 41 41 41 41 41 41 41 40 40 39 38 38 37 35 34 32 31 29 27 25 23 20 16 12 8 4 3 5 8 10 12 14 15 17 20 23 25 28 29 30
23 24 25 25 26 27 28 29 30 31 32 34 35 35 36 36 36 36 36 36 36 36 37 38 38 38 39 39 39 39 38 38 38 37 37 36 35 34 33 32 30 29 27 25 23 21 18 15 11 7 3 3 6 9 12 15 17 20 22 25 27 29
21 22 23 23 24 25 26 27 28 29 30 31 32 32 32 32 32 32 32 32 32 33 33 34 35 35 36 36 37 37 37 37 37 37 36 36 35 34 33 33 32 31 30 29 27 26 24 22 19 17 14 10 7 3 1 5 10 13 17 21 24 27
19 20 21 21 22 22 23 24 25 26 27 28 28 29 29 29 29 29 29 29 29 30 30 31 32 32 33 34 34 35 35 36 36 36 36 36 35 35 34 33 32 32 31 30 29 28 27 26 25 24 22 20 18 15 11 8 5 2 5 9 14 19
17 18 18 19 19 20 21 22 22 23 24 25 25 25 25 25 25 26 26 27 27 27 28 28 29 30 30 31 32 32 33 33 34 34 35 35 35 35 34 34 33 32 31 30 29 29 28 27 27 26 25 24 23 21 19 17 15 12 9 6 4 5
15 16 16 16 16 17 18 19 19 20 21 22 22 23 22 22 22 23 24 24 25 25 26 26 27 28 28 29 29 30 30 30 31 31 32 32 32 32 32 32 32 31 31 30 29 29 28 27 27 26 25 25 24 23 22 21 20 18 16 14 12 9
14 14 14 14 14 15 15 16 17 18 18 19 20 20 20 20 20 20 21 22 22 23 23 24 25 26 26 27 27 27 27 28 28 28 28 29 29 29 29 29 29 29 29 29 28 28 27 27 26 26 25 25 24 24 23 23 22 21 20 19 17 15
12 12 12 12 12 13 13 13 14 15 16 17 17 17 17 17 17 17 18 19 20 20 21 22 23 23 24 24 25 25 25 25 25 25 25 26 26 26 26 27 27 27 26 26 26 26 25 25 25 25 25 24 24 24 24 24 23 23 23 22 21 20
9 10 10 10 10 10 10 11 11 12 14 14 15 15 15 14 14 15 15 16 17 17 18 19 19 20 21 21 22 22 23 23 23 23 23 24 24 24 24 24 24 25 25 24 24 24 24 23 23 23 24 24 24 24 24 24 24 24 24 24 23 23
6 7 8 8 8 8 9 9 9 10 11 11 12 12 13 13 13 13 13 14 15 15 16 16 17 17 17 18 18 19 20 20 20 21 21 21 22 22 22 22 22 23 23 23 23 23 23 23 23 23 23 24 24 25 25 26 26 26 26 26 26 26
4 4 5 5 6 6 7 7 8 8 9 9 10 11 11 12 12 12 12 13 14 14 14 15 15 15 15 15 15 16 16 17 17 17 18 18 18 19 19 19 20 20 20 21 21 21 22 22 23 23 23 24 25 25 26 27 28 28 28 29 29 29
2 2 2 3 3 4 5 5 6 7 7 7 8 8 9 9 9 10 11 12 12 13 13 13 13 13 13 13 13 13 13 14 14 14 14 15 16 16 17 17 18 18 19 19 20 20 20 21 22 22 22 23 24 25 26 27 28 29 29 30 31 31
2 1 1 1 1 2 2 3 4 4 4 5 5 5 5 6 6 8 9 9 10 10 11 11 11 11 11 12 12 12 12 12 12 12 13 13 14 15 16 17 17 18 19 19 20 20 20 21 21 22 22 23 24 24 25 26 28 29 30 30 31 32
3 2 2 2 2 1 0 1 2 2 2 3 3 3 3 3 4 5 6 7 8 9 9 10 10 10 10 11 11 11 11 11 11 12 13 13 14 14 15 16 17 18 19 19 20 20 20 21 21 21 22 23 24 24 25 26 28 29 30 31 31 32
Wind_Direction
294 296 299 303 304 300 297 297 301 305 309 314 319 323 325 326 326 325 330 343 357 10 17 15 24 36 43 60 84 95 95 107 115 113 109 112 122 123 121 124 125 124 128 134 135 140 145 152 158 159 159 152 149 147 146 153 164 171 167 165 169 164
297 303 306 305 300 297 298 303 308 312 318 324 328 331 332 332 333 339 352 8 17 27 34 32 48 64 66 73 90 102 102 107 109 109 113 116 119 116 113 117 119 120 123 126 127 131 136 142 143 140 137 134 135 137 142 158 167 168 165 166 166 161
306 308 305 300 298 300 306 312 318 324 330 334 337 338 340 345 354 9 23 32 37 47 48 47 65 77 83 91 97 103 105 107 107 106 107 107 108 109 110 114 117 118 119 120 121 126 129 132 131 129 129 130 132 138 145 158 162 163 163 161 161 160
310 304 299 299 304 311 317 325 331 337 342 344 345 348 357 12 24 38 45 49 53 58 57 58 72 83 90 97 100 102 104 104 101 100 99 100 102 104 107 110 112 113 114 116 121 123 126 128 130 129 130 133 140 146 146 149 155 157 158 156 159 164
304 298 302 311 318 326 333 340 346 351 354 353 355 6 27 41 48 56 57 58 60 63 65 68 79 88 92 99 103 104 103 102 101 102 104 105 106 105 107 111 110 113 116 121 124 124 126 130 132 130 133 140 148 150 142 139 144 144 151 154 159 166
301 308 321 330 337 346 351 356 2 6 6 6 13 36 55 60 62 64 64 64 64 65 71 78 85 90 93 100 105 104 104 104 105 108 110 111 111 110 114 117 116 118 121 124 125 125 128 131 132 132 140 149 151 146 135 130 132 134 146 155 161 166
319 336 349 355 1 6 8 13 17 20 22 25 37 58 71 72 70 70 69 69 70 71 74 81 86 91 96 100 104 104 104 104 106 108 110 112 113 116 121 123 121 119 121 125 125 127 128 130 133 139 149 153 146 139 132 127 128 130 144 158 162 165
0 11 17 19 21 23 26 28 28 33 39 46 55 66 73 76 76 75 75 74 75 76 78 82 88 94 98 101 103 102 101 101 102 103 106 111 114 119 123 124 123 121 123 128 128 128 130 133 137 145 155 153 144 139 132 128 128 129 142 158 161 162
32 34 34 35 38 39 40 40 39 43 50 58 64 69 72 74 76 78 78 77 76 79 82 85 88 93 98 100 101 99 96 96 96 97 101 109 116 121 124 125 126 125 128 131 131 130 132 138 143 150 157 152 145 142 135 131 129 127 137 156 161 161
45 45 45 46 47 48 49 48 48 51 55 61 66 69 71 72 73 75 76 77 77 79 83 87 89 91 95 98 100 98 95 94 93 94 97 106 116 122 126 127 127 130 133 135 133 132 132 140 149 155 159 151 148 147 139 133 130 128 133 154 165 163
52 52 53 53 53 53 54 55 56 57 59 62 65 67 69 70 71 71 72 75 77 81 83 86 89 91 93 95 98 100 100 98 98 98 100 106 115 123 128 129 130 133 138 140 138 135 133 139 150 159 161 153 153 153 144 136 134 133 136 153 170 170
57 57 57 58 58 58 59 60 61 62 63 64 66 67 68 70 71 72 72 73 76 81 85 87 91 91 93 94 96 101 104 106 105 106 106 108 114 121 128 131 133 135 141 145 144 142 138 139 148 158 161 156 158 160 152 143 140 140 142 153 172 177
61 61 61 62 62 62 62 62 63 64 65 67 68 69 69 71 73 75 76 77 77 80 83 86 90 93 95 96 96 99 104 108 109 110 110 111 114 118 123 129 135 138 142 147 149 151 147 141 145 153 160 160 162 167 162 152 147 146 147 151 170 181
64 64 64 65 65 65 65 64 65 65 66 68 69 70 71 72 74 77 81 83 83 83 84 85 87 91 93 96 100 102 104 107 109 110 110 112 115 118 120 124 133 140 145 148 151 157 158 151 146 149 156 161 164 171 172 165 156 153 153 154 165 182
67 67 67 66 66 67 67 68 68 68 69 69 70 70 71 71 73 75 79 83 86 88 89 89 90 90 91 92 95 101 105 108 111 111 111 112 115 119 120 121 129 141 150 154 154 157 162 161 157 153 155 162 167 173 178 179 173 164 162 161 164 179
70 70 69 68 68 68 69 71 71 71 72 71 71 71 71 72 72 74 76 78 81 86 91 93 95 95 95 93 91 96 101 105 109 111 113 114 116 118 120 122 128 139 149 158 161 162 163 165 166 165 163 164 169 174 181 187 188 181 171 168 169 176
74 73 73 72 71 71 72 72 74 74 75 75 74 74 74 74 74 74 74 75 76 79 83 89 94 97 100 100 98 98 100 104 109 112 116 118 120 121 122 124 129 138 148 157 165 168 168 169 172 175 175 172 172 177 182 189 195 195 188 180 177 178
78 78 78 77 76 75 75 75 75 76 77 77 77 77 77 77 76 75 75 75 75 76 77 79 82 86 91 95 98 100 102 105 109 112 115 120 123 126 129 132 134 138 145 153 162 170 174 176 178 180 181 180 178 179 183 190 195 200 201 198 192 188
82 82 81 81 79 78 78 78 78 78 78 78 78 78 77 77 77 76 76 76 76 77 77 77 77 78 79 81 83 86 89 94 101 108 113 118 120 123 128 134 140 145 148 152 158 166 173 179 184 184 184 186 186 185 186 191 196 201 206 208 207 205
84 83 83 83 82 81 81 81 81 81 81 80 79 79 78 78 78 77 77 77 77 77 77 77 78 78 78 78 78 78 78 79 81 85 92 101 111 117 123 127 133 142 149 156 160 166 172 177 183 186 186 188 191 192 191 192 197 202 207 211 212 214
85 84 84 84 83 83 83 84 84 84 84 83 82 81 80 79 79 78 78 78 77 77 77 77 77 77 77 77 77 77 77 77 76 77 78 79 83 88 96 110 123 135 146 154 160 166 173 179 185 190 191 191 192 195 197 196 197 201 207 213 216 218
86 86 86 85 85 85 85 86 86 86 86 85 84 83 82 81 80 80 79 79 78 78 77 76 76 76 76 75 75 76 76 76 76 76 76 76 76 78 80 83 88 97 119 149 168 175 181 185 190 194 198 200 199 200 203 203 203 203 205 211 217 220
89 89 89 88 88 87 87 88 87 87 86 86 85 84 83 82 82 81 81 80 80 79 78 77 77 76 75 75 74 74 74 74 74 74 75 75 75 75 76 77 79 80 83 88 98 139 187 204 208 210 212 212 212 212 211 211 212 211 210 210 213 218
93 92 92 92 91 91 90 89 89 88 88 87 86 85 84 83 82 82 81 81 81 80 80 79 79 78 77 77 76 76 75 74 74 73 73 73 73 73 73 73 75 75 77 79 80 83 89 104 166 215 226 229 228 227 225 224 223 222 221 219 217 217
96 96 95 95 94 94 92 92 91 90 90 89 88 86 85 84 83 82 81 81 80 80 79 79 79 79 79 79 79 78 77 77 76 75 74 73 72 72 72 71 71 72 72 73 74 75 76 77 79 84 106 204 230 235 235 236 235 235 233 231 229 226
98 98 97 97 96 95 94 93 93 92 91 90 89 88 86 84 83 82 81 79 79 78 78 78 78 78 79 79 79 79 79 78 77 76 75 74 74 73 72 71 70 70 69 69 69 70 70 70 69 69 69 70 71 72 237 244 243 243 242 241 240 237
99 98 98 98 97 97 96 95 94 93 92 91 90 88 87 85 83 81 79 78 77 76 76 76 77 77 78 78 79 79 79 79 78 77 77 76 75 74 72 71 70 70 69 68 68 67 67 66 66 65 64 63 62 60 57 52 38 335 272 258 252 248
99 98 97 97 96 96 96 95 95 94 93 92 90 89 86 84 82 80 79 77 76 75 75 75 75 75 76 76 76 77 77 78 78 77 77 76 75 74 73 72 71 70 69 69 68 67 66 65 64 64 63 62 61 60 58 56 53 49 41 26 351 296
101 100 98 97 97 96 95 95 94 94 93 92 90 89 86 83 81 78 77 75 74 73 73 73 74 74 75 74 74 74 74 74 75 75 74 73 72 72 71 70 70 69 69 68 68 67 66 65 64 63 62 61 60 58 57 56 54 51 48 44 38 30
102 101 100 99 98 96 96 95 94 93 91 89 88 86 84 81 78 76 75 73 72 71 70 70 71 71 71 71 71 71 71 71 71 70 69 68 67 67 67 66 66 65 65 65 65 64 63 62 61 59 58 57 55 54 53 51 50 48 45 43 40 35
103 104 102 100 98 96 95 96 95 94 91 88 85 83 81 78 75 73 72 71 70 69 69 69 69 69 68 67 66 66 66 66 65 64 62 61 60 60 60 60 59 59 59 58 58 57 56 55 53 51 50 48 47 46 45 43 42 41 39 38 36 34
105 105 103 101 98 94 92 92 92 92 90 88 85 82 78 75 70 68 67 67 66 65 65 66 67 68 67 65 64 63 61 60 59 57 55 53 53 53 52 52 51 50 50 49 48 47 45 44 43 41 39 37 35 34 33 32 31 30 29 29 28 27
103 103 102 99 95 92 87 85 84 84 84 83 79 75 69 65 60 58 58 58 59 58 58 59 60 61 62 62 62 61 59 57 55 52 49 47 45 44 43 42 41 40 39 38 37 36 35 33 32 30 29 27 24 22 20 19 19 18 18 17 17 16
100 97 96 92 88 84 78 75 75 75 75 73 68 63 58 53 48 45 43 43 44 45 45 47 48 49 50 50 51 52 53 52 50 47 44 40 37 34 31 30 29 29 28 27 27 27 25 24 23 21 20 19 16 14 11 10 9 8 8 8 7 7
114 104 97 91 82 73 68 66 65 66 67 64 61 57 51 45 39 34 31 31 32 32 33 33 36 37 37 36 37 37 38 39 39 37 34 29 25 21 18 15 15 15 15 15 15 15 15 15 13 12 12 12 11 8 5 3 2 1 0 360 359 359
163 167 168 137 93 68 60 59 57 58 57 54 51 48 42 34 27 23 22 21 21 21 20 19 20 22 23 21 19 19 20 19 19 18 17 15 11 8 6 4 3 2 2 3 3 4 5 5 4 2 1 2 2 2 359 357 356 355 354 354 353 352
217 227 239 247 249 259 325 25 34 31 26 22 21 20 16 8 3 1 2 4 7 8 6 2 0 2 5 3 359 358 359 359 358 359 358 357 356 355 354 353 352 352 351 351 352 353 354 355 355 353 352 352 353 354 353 351 350 349 348 348 347 346
Height
10695 10694 10692 10690 10688 10685 10682 10679 10677 10673 10670 10666 10662 10658 10655 10651 10648 10645 10642 10640 10637 10635 10633 10631 10629 10628 10627 10626 10626 10625 10624 10623 10623 10623 10624 10625 10626 10627 10627 10628 10630 10632 10635 10637 10640 10642 10645 10648 10650 10654 10657 10661 10664 10668 10672 10674 10673 10673 10676 10680 10682 10684
10693 10691 10689 10687 10685 10682 10680 10677 10674 10670 10667 10663 10659 10656 10653 10650 10647 10644 10642 10639 10637 10636 10634 10633 10631 10629 10628 10627 10627 10626 10625 10625 10625 10626 10627 10629 10629 10629 10629 10630 10633 10635 10637 10639 10642 10645 10647 10650 10652 10655 10658 10661 10664 10668 10672 10671 10671 10674 10676 10679 10682 10686
10691 10689 10687 10685 10683 10681 10678 10675 10671 10667 10664 10661 10658 10655 10652 10649 10647 10644 10642 10640 10638 10637 10636 10635 10633 10631 10630 10629 10629 10629 10628 10628 10628 10629 10630 10631 10631 10631 10633 10634 10636 10638 10639 10642 10644 10647 10649 10652 10655 10657 10660 10663 10665 10668 10671 10671 10673 10676 10677 10680 10684 10688
10689 10687 10685 10684 10682 10679 10676 10672 10669 10665 10662 10659 10657 10654 10652 10649 10646 10644 10642 10640 10639 10638 10637 10636 10635 10633 10632 10631 10631 10631 10630 10630 10631 10632 10632 10634 10635 10635 10637 10638 10640 10641 10643 10645 10647 10650 10652 10655 10658 10660 10662 10664 10666 10668 10670 10673 10675 10677 10679 10682 10686 10689
10688 10686 10685 10683 10680 10677 10673 10670 10667 10664 10661 10659 10657 10654 10652 10649 10647 10645 10643 10641 10640 10639 10639 10638 10637 10636 10635 10634 10634 10633 10633 10633 10633 10634 10635 10637 10638 10639 10641 10642 10643 10645 10646 10648 10650 10652 10655 10657 10659 10661 10663 10665 10667 10669 10671 10674 10677 10679 10682 10685 10688 10690
10687 10686 10684 10681 10678 10675 10671 10669 10666 10664 10661 10659 10657 10654 10652 10650 10648 10646 10645 10643 10642 10641 10641 10641 10640 10639 10639 10638 10637 10636 10636 10636 10636 10637 10638 10639 10640 10641 10643 10644 10645 10647 10649 10650 10652 10654 10656 10659 10661 10662 10664 10666 10668 10670 10673 10677 10679 10681 10684 10687 10689 10690
10687 10685 10683 10680 10676 10673 10670 10668 10666 10664 10662 10660 10657 10655 10653 10651 10649 10648 10647 10646 10645 10644 10643 10643 10643 10642 10642 10642 10641 10639 10639 10639 10639 10640 10641 10641 10642 10643 10645 10646 10647 10649 10651 10652 10654 10656 10658 10660 10662 10664 10665 10667 10669 10672 10675 10679 10681 10684 10686 10689 10691 10692
10686 10684 10681 10678 10675 10673 10670 10667 10665 10664 10662 10660 10658 10655 10654 10652 10651 10650 10649 10648 10647 10646 10646 10645 10645 10645 10645 10645 10644 10643 10642 10642 10642 10643 10643 10644 10645 10645 10646 10648 10649 10650 10653 10655 10656 10658 10660 10661 10663 10665 10666 10669 10671 10673 10676 10680 10682 10685 10688 10690 10692 10695
10685 10683 10680 10678 10675 10672 10670 10668 10666 10664 10663 10661 10658 10656 10654 10653 10652 10651 10651 10650 10649 10648 10648 10648 10648 10648 10647 10647 10647 10646 10645 10646 10645 10646 10647 10647 10647 10648 10649 10650 10651 10652 10654 10656 10658 10660 10662 10663 10664 10666 10668 10670 10672 10674 10677 10680 10683 10685 10689 10691 10694 10696
10684 10682 10680 10677 10675 10672 10670 10669 10667 10665 10663 10661 10659 10657 10655 10654 10654 10653 10652 10651 10650 10650 10650 10649 10650 10650 10650 10649 10649 10648 10648 10648 10649 10649 10649 10650 10650 10651 10651 10652 10653 10655 10656 10658 10660 10662 10664 10665 10666 10667 10669 10671 10674 10676 10678 10681 10683 10686 10689 10692 10694 10696
10684 10682 10680 10677 10675 10673 10672 10670 10668 10666 10664 10662 10659 10657 10656 10655 10655 10654 10653 10653 10652 10652 10652 10652 10651 10652 10652 10652 10651 10651 10651 10651 10651 10652 10652 10653 10653 10653 10654 10655 10656 10657 10658 10660 10661 10663 10665 10667 10668 10669 10671 10673 10675 10677 10679 10681 10684 10687 10689 10691 10693 10695
10684 10682 10680 10678 10676 10675 10673 10672 10670 10667 10665 10663 10660 10659 10657 10656 10656 10655 10655 10655 10654 10654 10654 10653 10653 10654 10654 10654 10654 10654 10654 10653 10653 10654 10654 10655 10655 10656 10656 10657 10658 10659 10660 10662 10663 10665 10666 10668 10669 10671 10673 10675 10676 10678 10679 10681 10684 10687 10689 10690 10692 10694
10685 10683 10681 10680 10678 10677 10675 10673 10671 10669 10667 10664 10662 10660 10659 10658 10657 10656 10656 10656 10656 10656 10655 10655 10655 10655 10656 10656 10657 10657 10657 10656 10656 10656 10656 10656 10657 10658 10659 10659 10660 10661 10662 10664 10665 10667 10668 10670 10671 10672 10674 10676 10678 10679 10680 10682 10684 10687 10688 10690 10692 10694
10686 10684 10683 10682 10680 10679 10677 10675 10673 10671 10669 10666 10664 10663 10661 10660 10659 10658 10657 10657 10657 10657 10657 10657 10657 10657 10657 10657 10658 10658 10659 10659 10658 10658 10658 10658 10659 10659 10660 10661 10662 10663 10664 10665 10667 10668 10670 10671 10673 10674 10676 10678 10679 10681 10682 10683 10685 10687 10689 10691 10693 10695
10687 10686 10684 10684 10682 10681 10679 10677 10675 10673 10671 10669 10667 10665 10664 10662 10661 10660 10659 10658 10658 10658 10658 10658 10658 10658 10658 10658 10659 10659 10660 10660 10660 10660 10660 10660 10661 10661 10662 10662 10663 10664 10665 10667 10668 10669 10671 10672 10674 10676 10677 10679 10680 10682 10683 10684 10686 10688 10690 10691 10693 10695
10689 10687 10686 10685 10684 10682 10681 10679 10678 10676 10674 10672 10670 10668 10666 10665 10664 10663 10661 10660 10660 10659 10659 10659 10659 10659 10659 10659 10659 10660 10660 10661 10661 10662 10662 10662 10662 10663 10663 10664 10665 10665 10666 10667 10669 10670 10672 10673 10675 10676 10678 10679 10681 10683 10684 10685 10687 10688 10690 10692 10694 10695
10691 10689 10688 10688 10686 10685 10683 10682 10680 10678 10677 10675 10673 10671 10670 10668 10667 10666 10664 10662 10662 10661 10661 10661 10660 10660 10660 10660 10660 10660 10661 10661 10662 10662 10663 10663 10664 10664 10665 10665 10666 10667 10667 10668 10669 10671 10672 10673 10675 10676 10678 10679 10681 10683 10684 10686 10687 10689 10691 10692 10694 10695
10693 10692 10691 10690 10689 10687 10686 10684 10683 10681 10679 10678 10676 10675 10673 10672 10670 10669 10667 10666 10665 10665 10664 10663 10663 10662 10662 10662 10662 10662 10662 10662 10662 10663 10663 10664 10665 10665 10666 10667 10667 10668 10669 10669 10670 10671 10673 10674 10675 10676 10677 10679 10681 10682 10684 10685 10687 10689 10690 10692 10693 10695
10695 10694 10693 10692 10692 10690 10689 10687 10686 10684 10683 10681 10680 10678 10677 10675 10674 10672 10671 10670 10669 10668 10667 10667 10666 10665 10664 10664 10664 10664 10663 10663 10664 10664 10664 10665 10665 10666 10666 10667 10668 10669 10669 10670 10671 10672 10673 10674 10675 10676 10677 10679 10680 10682 10683 10684 10686 10687 10689 10690 10692 10693
10697 10697 10696 10695 10694 10693 10692 10691 10689 10688 10686 10685 10683 10682 10681 10679 10678 10677 10675 10674 10673 10672 10671 10670 10669 10669 10668 10667 10666 10666 10666 10665 10665 10665 10665 10666 10666 10666 10667 10668 10668 10669 10670 10671 10671 10672 10673 10674 10675 10676 10677 10679 10680 10681 10682 10684 10685 10686 10688 10689 10690 10691
10700 10699 10698 10698 10697 10696 10695 10694 10693 10691 10690 10689 10687 10686 10685 10684 10682 10681 10680 10678 10677 10676 10675 10674 10673 10672 10671 10671 10670 10669 10668 10668 10668 10667 10667 10667 10667 10667 10668 10668 10669 10669 10670 10671 10672 10673 10674 10675 10676 10677 10677 10678 10680 10681 10682 10683 10684 10685 10686 10688 10689 10690
10702 10701 10701 10700 10700 10699 10698 10697 10696 10695 10693 10692 10691 10690 10689 10688 10687 10686 10684 10683 10682 10681 10679 10678 10677 10676 10675 10674 10673 10672 10672 10671 10670 10670 10669 10669 10669 10668 10668 10669 10669 10669 10670 10671 10672 10673 10674 10675 10676 10677 10678 10679 10679 10680 10681 10682 10683 10684 10685 10686 10688 10689
10704 10704 10703 10703 10702 10702 10701 10700 10699 10698 10697 10695 10694 10694 10693 10692 10691 10690 10688 10687 10686 10685 10684 10683 10682 10680 10679 10678 10677 10676 10675 10674 10674 10673 10672 10672 10671 10671 10670 10670 10670 10670 10671 10671 10672 10672 10673 10674 10675 10676 10677 10678 10679 10680 10681 10682 10682 10683 10684 10685 10686 10687
10706 10706 10706 10705 10705 10704 10703 10702 10702 10701 10700 10699 10698 10697 10696 10695 10694 10693 10692 10691 10690 10689 10688 10687 10686 10684 10683 10682 10681 10680 10679 10678 10677 10677 10676 10675 10674 10674 10673 10673 10672 10672 10672 10672 10672 10673 10673 10674 10674 10675 10676 10677 10678 10679 10680 10681 10682 10682 10683 10684 10684 10685
10708 10708 10708 10707 10707 10707 10706 10705 10705 10704 10703 10702 10701 10700 10699 10698 10697 10696 10695 10695 10693 10692 10691 10690 10689 10688 10687 10686 10685 10684 10683 10682 10681 10680 10679 10679 10678 10677 10677 10676 10676 10675 10675 10675 10675 10674 10674 10675 10675 10675 10675 10676 10676 10677 10678 10679 10679 10680 10681 10682 10683 10683
10710 10710 10710 10710 10709 10709 10708 10708 10707 10706 10705 10704 10703 10702 10702 10701 10700 10699 10698 10697 10696 10695 10694 10693 10692 10691 10690 10689 10688 10687 10686 10686 10685 10684 10683 10682 10681 10681 10680 10680 10679 10679 10678 10678 10678 10677 10677 10677 10677 10677 10676 10677 10677 10677 10677 10677 10678 10678 10679 10679 10680 10681
10712 10712 10712 10712 10712 10711 10711 10710 10709 10709 10708 10707 10706 10705 10704 10704 10703 10702 10701 10700 10699 10698 10697 10696 10695 10694 10693 10692 10691 10690 10689 10688 10687 10687 10686 10685 10684 10684 10683 10683 10682 10682 10681 10681 10681 10680 10680 10680 10679 10679 10679 10678 10678 10678 10678 10678 10677 10677 10677 10677 10677 10678
10714 10714 10714 10714 10713 10713 10713 10712 10712 10711 10710 10709 10708 10707 10707 10706 10705 10704 10703 10702 10701 10700 10699 10698 10697 10697 10696 10695 10694 10693 10692 10691 10690 10689 10688 10687 10687 10686 10686 10685 10685 10684 10684 10683 10683 10683 10682 10682 10682 10681 10681 10681 10680 10680 10679 10679 10678 10678 10677 10677 10677 10676
10716 10715 10715 10715 10715 10715 10714 10714 10713 10713 10712 10711 10710 10710 10709 10708 10708 10706 10705 10704 10704 10703 10702 10701 10700 10699 10698 10697 10696 10695 10694 10693 10692 10692 10691 10690 10689 10688 10687 10687 10686 10686 10686 10685 10685 10685 10684 10684 10684 10683 10683 10682 10682 10681 10681 10680 10680 10679 10678 10677 10677 10676
10717 10717 10717 10717 10717 10717 10716 10716 10715 10714 10714 10713 10712 10711 10711 10710 10709 10708 10707 10706 10705 10704 10703 10702 10701 10700 10700 10699 10698 10697 10696 10696 10695 10694 10693 10692 10691 10690 10689 10688 10688 10687 10687 10686 10686 10686 10685 10685 10685 10684 10684 10683 10682 10682 10681 10681 10680 10679 10678 10677 10676 10676
10719 10719 10719 10718 10718 10718 10718 10717 10717 10716 10715 10715 10714 10713 10712 10712 10711 10710 10709 10708 10707 10706 10705 10704 10703 10702 10701 10700 10699 10699 10698 10697 10696 10695 10694 10694 10693 10692 10691 10690 10689 10688 10688 10687 10687 10686 10686 10685 10685 10684 10683 10683 10682 10681 10681 10680 10679 10679 10678 10677 10676 10675
10720 10720 10720 10720 10720 10719 10719 10718 10718 10717 10716 10716 10715 10714 10714 10713 10712 10712 10711 10710 10709 10708 10707 10706 10705 10703 10703 10702 10701 10700 10699 10698 10697 10696 10696 10695 10694 10693 10692 10691 10690 10689 10688 10687 10687 10686 10685 10685 10684 10683 10682 10682 10681 10680 10679 10679 10678 10677 10677 10676 10675 10674
10722 10721 10721 10721 10721 10720 10720 10719 10719 10718 10717 10717 10716 10715 10714 10714 10713 10713 10712 10711 10710 10709 10708 10707 10706 10705 10704 10703 10702 10701 10700 10699 10698 10697 10697 10696 10695 10694 10693 10692 10691 10690 10689 10688 10687 10686 10685 10684 10683 10682 10681 10680 10679 10679 10678 10677 10676 10675 10674 10674 10673 10672
10722 10722 10722 10722 10721 10721 10721 10720 10719 10718 10718 10717 10716 10715 10715 10714 10713 10713 10712 10711 10710 10709 10708 10707 10706 10705 10704 10704 10703 10702 10701 10700 10699 10698 10697 10696 10696 10695 10694 10693 10691 10690 10689 10688 10687 10686 10684 10683 10682 10681 10680 10679 10678 10677 10676 10675 10674 10673 10672 10671 10670 10669
10723 10723 10722 10722 10722 10721 10721 10720 10720 10719 10718 10718 10717 10716 10715 10715 10714 10713 10712 10712 10711 10710 10709 10708 10707 10706 10705 10704 10703 10702 10701 10700 10699 10698 10697 10696 10696 10695 10694 10693 10692 10690 10689 10688 10687 10685 10684 10683 10681 10680 10679 10678 10677 10676 10674 10673 10672 10671 10669 10668 10667 10666
10723 10723 10723 10722 10722 10722 10721 10720 10720 10719 10719 10718 10717 10717 10716 10715 10715 10714 10713 10712 10711 10710 10709 10708 10707 10706 10705 10704 10703 10702 10701 10700 10699 10698 10697 10696 10695 10694 10693 10692 10691 10690 10689 10688 10686 10685 10684 10682 10681 10679 10678 10677 10676 10675 10673 10671 10670 10669 10667 10666 10665 10663
10722 10722 10722 10722 10722 10721 10721 10720 10719 10719 10719 10718 10718 10717 10716 10716 10715 10714 10714 10713 10712 10711 10709 10708 10707 10706 10705 10704 10703 10702 10701 10700 10699 10697 10696 10695 10694 10693 10692 10691 10690 10689 10688 10687 10686 10684 10683 10682 10680 10679 10677 10675 10674 10673 10671 10670 10668 10666 10665 10664 10662 10661